NUSAT-29 (EDITH CLARKE) (52764 NORAD) Tracking and Keplerian Element Data

This shows tracking and keplerian element data for the satellite.

Feedback or suggestion? Click here.




ElementValue
Catalog52764
NameNUSAT-29 (EDITH CLARKE)
Epoch Orbit717
Epoch Day193.14545852
Epoch Year2022
RAAN307.5002
Inclination97.4684
Eccentricity0.001392
Argument of Perigee56.8006
Mean Anonmoly303.456
Mean Motion15.17481744
Decay Rate5.378E-05
L11 52764U 22057AJ 22193.14545852 .00005378 00000+0 27116-3 0 9993
L22 52764 97.4684 307.5002 0013920 56.8006 303.4560 15.17481744 7179

Live tracking and technical data element details for NUSAT-29 (EDITH CLARKE) (NORAD 52764). NUSAT-29 (EDITH CLARKE) can be tracked NOW for your location showing map with azimuth and elevation plus other details from your city location.

Track the satellite on the map from your city or location and see movement details for azimuth, elevation, latitude, longitude, range, height, and movement on the map or in text.







IsCatalogInMostPopularTable: catalog: 52764, numindb: 4
Update: records affected: 1



GetName: 52764 NUSAT-29 (EDITH CLARKE)

Hit Count: updated at: Sun, 14 Aug 2022 00:22:54 GMT